EN

Hourly Weather Panahes

Today, 2 March, Tuesday

Time Temperature Precipitation Wind Pressure Humidity
00:00 +5°C° 0.1 mm 1 mps 769 mmHg 93%
01:00 +5°C° 0.1 mm 1 mps 769 mmHg 93%
02:00 +5°C° 0.1 mm 1 mps 769 mmHg 94%
03:00 +4°C° 0 mm 1 mps 770 mmHg 97%
04:00 +4°C° 0.2 mm 1 mps 770 mmHg 96%
05:00 +4°C° 0.2 mm 1 mps 769 mmHg 96%
06:00 +3°C° 0.2 mm 2 mps 769 mmHg 95%
07:00 +4°C° 0.1 mm 1 mps 770 mmHg 93%
08:00 +4°C° 0.1 mm 1 mps 770 mmHg 90%
09:00 +4°C° 0 mm 1 mps 770 mmHg 85%
10:00 +4°C° 0 mm 2 mps 770 mmHg 80%
11:00 +5°C° 0 mm 2 mps 770 mmHg 74%
12:00 +6°C° 0 mm 2 mps 769 mmHg 69%
13:00 +5°C° 0 mm 3 mps 769 mmHg 67%
14:00 +7°C° 0 mm 3 mps 769 mmHg 65%
15:00 +6°C° 0 mm 4 mps 769 mmHg 63%
16:00 +5°C° 0 mm 4 mps 768 mmHg 65%
17:00 +5°C° 0 mm 4 mps 768 mmHg 68%
18:00 +4°C° 0 mm 3 mps 768 mmHg 70%
19:00 +3°C° 0 mm 4 mps 767 mmHg 73%
20:00 +1°C° 0 mm 4 mps 767 mmHg 75%
21:00 +1°C° 0 mm 4 mps 767 mmHg 78%
22:00 +1°C° 0 mm 4 mps 767 mmHg 78%
23:00 +1°C° 0 mm 5 mps 766 mmHg 79%

Tomorrow, 3 March, Wednesday

Time Temperature Precipitation Wind Pressure Humidity
00:00 +1°C° 0 mm 5 mps 766 mmHg 79%
01:00 +1°C° 0 mm 5 mps 765 mmHg 80%
02:00 +2°C° 0 mm 6 mps 765 mmHg 80%
03:00 +2°C° 0 mm 6 mps 765 mmHg 80%
04:00 +2°C° 0.2 mm 6 mps 764 mmHg 83%
05:00 +2°C° 0.2 mm 6 mps 764 mmHg 86%
06:00 +2°C° 0.2 mm 7 mps 763 mmHg 89%
07:00 +1°C° 0.9 mm 6 mps 763 mmHg 91%
08:00 +1°C° 0.9 mm 6 mps 764 mmHg 94%
09:00 +1°C° 0.9 mm 5 mps 764 mmHg 96%
10:00 +1°C° 0.3 mm 5 mps 764 mmHg 91%
11:00 +2°C° 0.3 mm 5 mps 764 mmHg 87%
12:00 +2°C° 0.3 mm 5 mps 764 mmHg 82%
13:00 +3°C° 0.1 mm 5 mps 765 mmHg 77%
14:00 +3°C° 0.1 mm 5 mps 765 mmHg 71%
15:00 +5°C° 0.1 mm 5 mps 765 mmHg 66%
16:00 +3°C° 0 mm 5 mps 765 mmHg 68%
17:00 +4°C° 0 mm 4 mps 766 mmHg 70%
18:00 +3°C° 0 mm 4 mps 766 mmHg 72%
19:00 +2°C° 0 mm 3 mps 767 mmHg 74%
20:00 +2°C° 0 mm 2 mps 768 mmHg 76%
21:00 +3°C° 0 mm 1 mps 768 mmHg 79%
22:00 +3°C° 0 mm 1 mps 769 mmHg 80%
23:00 +2°C° 0 mm 1 mps 769 mmHg 81%

Day after tomorrow, 4 March, Thursday

Time Temperature Precipitation Wind Pressure Humidity
00:00 +2°C° 0 mm 1 mps 769 mmHg 82%
01:00 +2°C° 0 mm 1 mps 769 mmHg 82%
02:00 +1°C° 0 mm 2 mps 769 mmHg 83%
03:00 +1°C° 0 mm 2 mps 769 mmHg 83%
04:00 +1°C° 0 mm 2 mps 769 mmHg 83%
05:00 +1°C° 0 mm 2 mps 769 mmHg 82%
06:00 +1°C° 0 mm 2 mps 769 mmHg 81%
07:00 +2°C° 0 mm 2 mps 769 mmHg 76%
08:00 +3°C° 0 mm 2 mps 769 mmHg 71%
09:00 +4°C° 0 mm 2 mps 769 mmHg 66%
10:00 +4°C° 0 mm 3 mps 768 mmHg 62%
11:00 +5°C° 0 mm 3 mps 768 mmHg 57%
12:00 +7°C° 0 mm 4 mps 768 mmHg 53%
13:00 +7°C° 0 mm 4 mps 767 mmHg 53%
14:00 +7°C° 0 mm 5 mps 767 mmHg 54%
15:00 +7°C° 0 mm 5 mps 766 mmHg 55%
16:00 +6°C° 0 mm 5 mps 766 mmHg 59%
17:00 +5°C° 0 mm 4 mps 765 mmHg 64%
18:00 +4°C° 0 mm 4 mps 765 mmHg 68%
19:00 +3°C° 0 mm 4 mps 765 mmHg 71%
20:00 +3°C° 0 mm 4 mps 765 mmHg 73%
21:00 +2°C° 0 mm 3 mps 765 mmHg 75%
22:00 +2°C° 0 mm 3 mps 765 mmHg 76%
23:00 +2°C° 0 mm 3 mps 765 mmHg 76%

5 March, Friday

Time Temperature Precipitation Wind Pressure Humidity
00:00 +1°C° 0 mm 3 mps 765 mmHg 77%
01:00 +1°C° 0 mm 3 mps 765 mmHg 78%
02:00 +1°C° 0 mm 3 mps 764 mmHg 79%
03:00 +1°C° 0 mm 3 mps 764 mmHg 80%
04:00 +1°C° 0 mm 3 mps 764 mmHg 81%
05:00 +2°C° 0 mm 2 mps 764 mmHg 81%
06:00 +2°C° 0 mm 2 mps 763 mmHg 82%
07:00 +2°C° 0 mm 3 mps 763 mmHg 77%
08:00 +3°C° 0 mm 3 mps 764 mmHg 73%
09:00 +4°C° 0 mm 4 mps 764 mmHg 68%
10:00 +6°C° 0 mm 5 mps 763 mmHg 63%
11:00 +7°C° 0 mm 5 mps 763 mmHg 58%
12:00 +9°C° 0 mm 6 mps 763 mmHg 53%
13:00 +9°C° 0 mm 6 mps 763 mmHg 52%
14:00 +9°C° 0 mm 7 mps 762 mmHg 52%
15:00 +9°C° 0 mm 7 mps 762 mmHg 52%
16:00 +8°C° 0 mm 6 mps 762 mmHg 55%
17:00 +7°C° 0 mm 6 mps 762 mmHg 59%
18:00 +6°C° 0 mm 5 mps 762 mmHg 62%
19:00 +6°C° 0 mm 5 mps 762 mmHg 64%
20:00 +5°C° 0 mm 6 mps 762 mmHg 65%
21:00 +4°C° 0 mm 6 mps 762 mmHg 66%
22:00 +4°C° 0 mm 6 mps 762 mmHg 65%
23:00 +4°C° 0 mm 6 mps 762 mmHg 64%

6 March, Saturday

Time Temperature Precipitation Wind Pressure Humidity
00:00 +4°C° 0 mm 6 mps 762 mmHg 62%
01:00 +5°C° 0 mm 6 mps 761 mmHg 60%
02:00 +5°C° 0 mm 7 mps 761 mmHg 58%
03:00 +5°C° 0 mm 7 mps 761 mmHg 56%
04:00 +5°C° 0 mm 7 mps 761 mmHg 57%
05:00 +5°C° 0 mm 7 mps 761 mmHg 58%
06:00 +5°C° 0 mm 6 mps 761 mmHg 59%
07:00 +6°C° 0 mm 7 mps 761 mmHg 59%
08:00 +6°C° 0 mm 7 mps 760 mmHg 60%
09:00 +7°C° 0 mm 8 mps 760 mmHg 60%
10:00 +9°C° 0 mm 8 mps 760 mmHg 59%
11:00 +10°C° 0 mm 8 mps 760 mmHg 58%
12:00 +11°C° 0 mm 8 mps 759 mmHg 57%
13:00 +11°C° 0 mm 8 mps 759 mmHg 58%
14:00 +11°C° 0 mm 8 mps 759 mmHg 60%
15:00 +11°C° 0 mm 8 mps 758 mmHg 62%
16:00 +10°C° 0 mm 7 mps 759 mmHg 67%
17:00 +10°C° 0 mm 5 mps 759 mmHg 71%
18:00 +10°C° 0 mm 4 mps 759 mmHg 76%
19:00 +8°C° 0.4 mm 4 mps 759 mmHg 80%
20:00 +7°C° 0.4 mm 4 mps 760 mmHg 84%
21:00 +6°C° 0.4 mm 4 mps 760 mmHg 88%
22:00 +5°C° 1.1 mm 5 mps 760 mmHg 90%
23:00 +2°C° 1.1 mm 5 mps 761 mmHg 93%

7 March, Sunday

Time Temperature Precipitation Wind Pressure Humidity
00:00 +1°C° 1.1 mm 6 mps 761 mmHg 95%
01:00 -1°C° 0.6 mm 6 mps 761 mmHg 92%
02:00 0°C° 0.6 mm 5 mps 762 mmHg 90%
03:00 -1°C° 0.6 mm 5 mps 763 mmHg 88%
04:00 -1°C° 0 mm 4 mps 763 mmHg 84%
05:00 -1°C° 0 mm 4 mps 764 mmHg 81%
06:00 -1°C° 0 mm 4 mps 765 mmHg 77%
07:00 -1°C° 0 mm 4 mps 765 mmHg 73%
08:00 -1°C° 0 mm 4 mps 766 mmHg 69%
09:00 -2°C° 0 mm 5 mps 766 mmHg 65%
10:00 -1°C° 0 mm 4 mps 766 mmHg 60%
11:00 0°C° 0 mm 4 mps 766 mmHg 56%
12:00 +1°C° 0 mm 4 mps 767 mmHg 51%
13:00 +1°C° 0 mm 4 mps 766 mmHg 49%
14:00 +1°C° 0 mm 4 mps 766 mmHg 48%
15:00 +3°C° 0 mm 4 mps 766 mmHg 47%
16:00 +1°C° 0 mm 4 mps 766 mmHg 49%
17:00 +1°C° 0 mm 3 mps 766 mmHg 52%
18:00 +2°C° 0 mm 2 mps 765 mmHg 55%
19:00 +1°C° 0 mm 2 mps 765 mmHg 57%
20:00 +1°C° 0 mm 2 mps 765 mmHg 60%
21:00 -1°C° 0 mm 2 mps 765 mmHg 62%
22:00 -1°C° 0 mm 2 mps 765 mmHg 62%
23:00 -1°C° 0 mm 3 mps 765 mmHg 62%
Show more

We Need Your Consent

Meteoprog and our Service Providers may store and access personal data such as cookies, device identifiers or other similar technologies on your device and process such data to personalise content and ads, as well as provide social media features and to analyse the traffic.

  • Store and/or access information on your device

    Cookies, device identifiers or other information can be stored or accessed on your device for the purposes indicated above.

  • Personalised ads and content, ad and content measurement, audience insights, and products development

    Ads and content can be personalised based on a profile. More data can be added to better personalise ads and content. Ad and content performance can be measured. Insights about the audience who saw the ads and content can be derived. Such data can be used to develop or improve user’s experience, systems and software.

By clicking ‘I Agree’ you will allow the use of indicated cookies, device identifiers, web beacons or other similar technologies. Your settings can be changed in the browser on your device.

For certain purposes, legitimate interests may be relied on, rather than consent. You can read more about this in our Privacy and Cookie Policy.